| time (UTC) | temp C | wind direction | speed KPH | gust KPH | rain 1hr cm | rain 24hr cm | rain mn cm | humidity % | barometer mb |
| 20260505152045 | 22 | 196 | 1.6 | 11.3 | 0.00 | 0.00 | 0.00 | 85 | 1003.7 |
| 20260505151045 | 22 | 227 | 1.6 | 9.7 | 0.00 | 0.00 | 0.00 | 85 | 1003.8 |
| 20260505123045 | 21 | 216 | 1.6 | 4.8 | 0.00 | 0.00 | 0.00 | 86 | 1003.4 |
| 20260505122045 | 21 | 221 | 4.8 | 8.0 | 0.00 | 0.00 | 0.00 | 85 | 1003.4 |
| 20260505121045 | 21 | 205 | 4.8 | 9.7 | 0.00 | 0.00 | 0.00 | 85 | 1003.3 |
| 20260505115045 | 21 | 227 | 0.0 | 6.4 | 0.00 | 0.00 | 0.00 | 85 | 1003.0 |
| 20260505114045 | 21 | 263 | 4.8 | 9.7 | 0.00 | 0.00 | 0.00 | 85 | 1002.9 |
| 20260505113046 | 21 | 235 | 4.8 | 9.7 | 0.00 | 0.00 | 0.00 | 85 | 1003.0 |
| 20260505112045 | 21 | 226 | 3.2 | 8.0 | 0.00 | 0.00 | 0.00 | 85 | 1003.1 |
| 20260505111045 | 21 | 238 | 1.6 | 12.9 | 0.00 | 0.00 | 0.00 | 85 | 1002.9 |
| 20260505102045 | 20 | 251 | 1.6 | 9.7 | 0.00 | 0.00 | 0.00 | 85 | 1002.8 |
| 20260505100046 | 20 | 234 | 1.6 | 8.0 | 0.00 | 0.00 | 0.00 | 84 | 1002.9 |
| 20260505095046 | 20 | 219 | 0.0 | 6.4 | 0.00 | 0.00 | 0.00 | 84 | 1002.9 |
| 20260505094046 | 20 | 242 | 1.6 | 9.7 | 0.00 | 0.00 | 0.00 | 84 | 1003.0 |
| 20260505092046 | 20 | 279 | 1.6 | 8.0 | 0.00 | 0.00 | 0.00 | 84 | 1002.9 |
| 20260505091046 | 20 | 231 | 3.2 | 9.7 | 0.00 | 0.00 | 0.00 | 84 | 1003.0 |
| 20260505090045 | 20 | 242 | 0.0 | 9.7 | 0.00 | 0.00 | 0.00 | 83 | 1003.2 |
| 20260505085046 | 20 | 241 | 0.0 | 14.5 | 0.00 | 0.00 | 0.00 | 83 | 1003.3 |
| 20260505084045 | 20 | 202 | 3.2 | 8.0 | 0.00 | 0.00 | 0.00 | 83 | 1003.5 |
| 20260505082045 | 20 | 204 | 3.2 | 14.5 | 0.00 | 0.00 | 0.00 | 83 | 1003.4 |
| 20260505081045 | 20 | 234 | 3.2 | 9.7 | 0.00 | 0.00 | 0.00 | 83 | 1003.6 |
| 20260505080046 | 20 | 213 | 3.2 | 6.4 | 0.00 | 0.00 | 0.00 | 82 | 1003.5 |
| 20260505075046 | 20 | 212 | 0.0 | 14.5 | 0.00 | 0.00 | 0.00 | 82 | 1003.6 |
| 20260505073046 | 20 | 226 | 3.2 | 11.3 | 0.00 | 0.00 | 0.00 | 81 | 1004.0 |
| 20260505072046 | 20 | 192 | 8.0 | 9.7 | 0.00 | 0.00 | 0.00 | 81 | 1004.1 |
| 20260505071046 | 19 | 232 | 3.2 | 8.0 | 0.00 | 0.00 | 0.00 | 80 | 1004.2 |
| 20260505070046 | 20 | 232 | 1.6 | 6.4 | 0.00 | 0.00 | 0.00 | 80 | 1004.4 |
| 20260505065046 | 20 | 232 | 0.0 | 4.8 | 0.00 | 0.00 | 0.00 | 79 | 1004.6 |
| 20260505064046 | 20 | 232 | 1.6 | 6.4 | 0.00 | 0.00 | 0.00 | 78 | 1004.7 |
| 20260505063046 | 20 | 238 | 1.6 | 6.4 | 0.00 | 0.00 | 0.00 | 78 | 1004.7 |
| 20260505062046 | 20 | 176 | 1.6 | 8.0 | 0.00 | 0.00 | 0.00 | 77 | 1004.8 |
| 20260505061046 | 20 | 254 | 0.0 | 4.8 | 0.00 | 0.00 | 0.00 | 77 | 1004.8 |
| 20260505060046 | 20 | 254 | 3.2 | 6.4 | 0.00 | 0.00 | 0.00 | 77 | 1004.9 |
| 20260505055046 | 19 | 236 | 0.0 | 4.8 | 0.00 | 0.00 | 0.00 | 76 | 1005.0 |
| 20260505054046 | 19 | 236 | 0.0 | 4.8 | 0.00 | 0.00 | 0.00 | 76 | 1005.2 |
| 20260505053046 | 19 | 265 | 3.2 | 3.2 | 0.00 | 0.00 | 0.00 | 76 | 1005.2 |
| 20260505052046 | 19 | 265 | 0.0 | 4.8 | 0.00 | 0.00 | 0.00 | 75 | 1005.1 |
| 20260505051046 | 19 | 265 | 3.2 | 3.2 | 0.00 | 0.00 | 0.00 | 76 | 1005.3 |
| 20260505050116 | 20 | 265 | 0.0 | 1.6 | 0.00 | 0.00 | 0.00 | 75 | 1005.3 |
| 20260505041046 | 18 | 265 | 0.0 | 4.8 | 0.00 | 0.00 | 0.00 | 79 | 1005.8 |
| 20260505040046 | 18 | 279 | 0.0 | 1.6 | 0.00 | 0.00 | 0.00 | 82 | 1005.9 |
| 20260505034046 | 17 | 279 | 0.0 | 0.0 | 0.00 | 0.00 | 0.00 | 83 | 1005.9 |
| 20260505033046 | 17 | 279 | 0.0 | 0.0 | 0.00 | 0.00 | 0.00 | 85 | 1005.9 |
| 20260505032047 | 17 | 279 | 0.0 | 0.0 | 0.00 | 0.00 | 0.00 | 83 | 1006.0 |
| 20260505031046 | 17 | 279 | 0.0 | 0.0 | 0.00 | 0.00 | 0.00 | 82 | 1005.9 |
| 20260505030046 | 18 | 279 | 0.0 | 0.0 | 0.00 | 0.00 | 0.00 | 81 | 1005.8 |
| 20260505025046 | 18 | 279 | 0.0 | 0.0 | 0.00 | 0.00 | 0.00 | 81 | 1005.7 |
| 20260505024046 | 18 | 279 | 0.0 | 1.6 | 0.00 | 0.00 | 0.00 | 80 | 1005.4 |
| 20260505023046 | 19 | 279 | 0.0 | 1.6 | 0.00 | 0.00 | 0.00 | 78 | 1005.6 |
| 20260505022047 | 19 | 279 | 0.0 | 1.6 | 0.00 | 0.00 | 0.00 | 76 | 1005.7 |
| 20260505020047 | 20 | 279 | 1.6 | 1.6 | 0.00 | 0.00 | 0.00 | 74 | 1005.5 |
| 20260505015047 | 21 | 279 | 0.0 | 1.6 | 0.00 | 0.00 | 0.00 | 72 | 1005.4 |
| 20260505014047 | 21 | 279 | 0.0 | 4.8 | 0.00 | 0.00 | 0.00 | 71 | 1005.3 |
| 20260505012046 | 22 | 279 | 1.6 | 3.2 | 0.00 | 0.00 | 0.00 | 67 | 1005.0 |
| 20260505011046 | 22 | 279 | 0.0 | 1.6 | 0.00 | 0.00 | 0.00 | 66 | 1005.0 |
| 20260505010046 | 23 | 279 | 0.0 | 8.0 | 0.00 | 0.00 | 0.00 | 63 | 1004.9 |
| 20260505005046 | 23 | 208 | 1.6 | 8.0 | 0.00 | 0.00 | 0.00 | 61 | 1004.7 |
| 20260505004046 | 23 | 225 | 0.0 | 6.4 | 0.00 | 0.00 | 0.00 | 62 | 1004.8 |
| 20260505002047 | 24 | 329 | 4.8 | 12.9 | 0.00 | 0.00 | 0.00 | 59 | 1005.1 |
| 20260505001047 | 24 | 194 | 3.2 | 9.7 | 0.00 | 0.00 | 0.00 | 59 | 1005.2 |
| 20260505000046 | 25 | 182 | 3.2 | 14.5 | 0.00 | 0.00 | 0.00 | 57 | 1005.3 |
| 20260504235046 | 25 | 218 | 3.2 | 12.9 | 0.00 | 0.00 | 0.00 | 57 | 1005.2 |
| 20260504234046 | 25 | 221 | 4.8 | 16.1 | 0.00 | 0.00 | 0.00 | 56 | 1005.5 |
| 20260504233046 | 25 | 153 | 6.4 | 17.7 | 0.00 | 0.00 | 0.00 | 55 | 1005.5 |
| 20260504232046 | 25 | 258 | 1.6 | 19.3 | 0.00 | 0.00 | 0.00 | 55 | 1005.5 |
| 20260504231047 | 25 | 216 | 6.4 | 16.1 | 0.00 | 0.00 | 0.00 | 55 | 1005.6 |
| 20260504230047 | 25 | 167 | 4.8 | 16.1 | 0.00 | 0.00 | 0.00 | 55 | 1005.6 |
| 20260504225046 | 25 | 209 | 1.6 | 14.5 | 0.00 | 0.00 | 0.00 | 56 | 1005.7 |
| 20260504224047 | 25 | 234 | 3.2 | 14.5 | 0.00 | 0.00 | 0.00 | 55 | 1005.8 |
| 20260504223046 | 26 | 237 | 1.6 | 14.5 | 0.00 | 0.00 | 0.00 | 54 | 1006.0 |
| 20260504222047 | 26 | 248 | 3.2 | 11.3 | 0.00 | 0.00 | 0.00 | 55 | 1005.9 |
| 20260504221047 | 26 | 241 | 4.8 | 17.7 | 0.00 | 0.00 | 0.00 | 54 | 1006.1 |
| 20260504220046 | 26 | 186 | 3.2 | 16.1 | 0.00 | 0.00 | 0.00 | 54 | 1006.2 |
| 20260504215047 | 26 | 211 | 6.4 | 16.1 | 0.00 | 0.00 | 0.00 | 52 | 1006.3 |
| 20260504214117 | 26 | 209 | 1.6 | 19.3 | 0.00 | 0.00 | 0.00 | 54 | 1006.4 |
| 20260504212047 | 27 | 21 | 8.0 | 17.7 | 0.00 | 0.00 | 0.00 | 50 | 1006.7 |
| 20260504211046 | 27 | 171 | 9.7 | 17.7 | 0.00 | 0.00 | 0.00 | 49 | 1007.2 |
| 20260504205047 | 26 | 246 | 3.2 | 14.5 | 0.00 | 0.00 | 0.00 | 51 | 1007.5 |
| 20260504204047 | 26 | 240 | 8.0 | 17.7 | 0.00 | 0.00 | 0.00 | 49 | 1007.8 |
| 20260504203047 | 26 | 273 | 11.3 | 24.1 | 0.00 | 0.00 | 0.00 | 52 | 1007.8 |
| 20260504201047 | 26 | 230 | 8.0 | 17.7 | 0.00 | 0.00 | 0.00 | 50 | 1008.2 |
| 20260504200047 | 26 | 221 | 3.2 | 27.4 | 0.00 | 0.00 | 0.00 | 52 | 1008.4 |
| 20260504195047 | 26 | 244 | 6.4 | 17.7 | 0.00 | 0.00 | 0.00 | 52 | 1008.7 |
| 20260504194047 | 26 | 218 | 6.4 | 17.7 | 0.00 | 0.00 | 0.00 | 49 | 1008.6 |
| 20260504192047 | 26 | 238 | 9.7 | 25.7 | 0.00 | 0.00 | 0.00 | 50 | 1009.1 |
| 20260504191047 | 26 | 246 | 11.3 | 19.3 | 0.00 | 0.00 | 0.00 | 51 | 1009.3 |
| 20260504190047 | 26 | 265 | 4.8 | 16.1 | 0.00 | 0.00 | 0.00 | 49 | 1009.4 |
| 20260504185047 | 26 | 246 | 4.8 | 16.1 | 0.00 | 0.00 | 0.00 | 50 | 1009.4 |
| 20260504184047 | 26 | 41 | 3.2 | 14.5 | 0.00 | 0.00 | 0.00 | 52 | 1009.5 |
| 20260504183047 | 26 | 265 | 4.8 | 17.7 | 0.00 | 0.00 | 0.00 | 51 | 1009.9 |
| 20260504182047 | 25 | 214 | 4.8 | 17.7 | 0.00 | 0.00 | 0.00 | 54 | 1010.0 |
| 20260504181047 | 25 | 230 | 9.7 | 22.5 | 0.00 | 0.00 | 0.00 | 54 | 1010.0 |
| 20260504180047 | 25 | 167 | 14.5 | 19.3 | 0.00 | 0.00 | 0.00 | 52 | 1010.3 |
| 20260504175047 | 25 | 302 | 3.2 | 20.9 | 0.00 | 0.00 | 0.00 | 53 | 1010.6 |
| 20260504174047 | 25 | 242 | 4.8 | 17.7 | 0.00 | 0.00 | 0.00 | 56 | 1010.7 |
| 20260504173047 | 25 | 225 | 6.4 | 17.7 | 0.00 | 0.00 | 0.00 | 50 | 1010.9 |
| 20260504172047 | 25 | 227 | 11.3 | 24.1 | 0.00 | 0.00 | 0.00 | 51 | 1011.2 |
| 20260504171047 | 25 | 103 | 6.4 | 16.1 | 0.00 | 0.00 | 0.00 | 55 | 1011.1 |